Regional Weather Roundup
Issued by NWS Albany, NY

Home | Current Version | Previous Version | Text Only | Print | Product List | Glossary On
Versions: 1 2 3 4 5 6 7 8 9 10 11 12 13 14 15 16 17 18 19 20 21 22 23 24 25 26 27 28 29 30 31 32 33 34 35 36 37 38 39 40 41 42 43 44 45 46 47 48 49 50
000
ASUS41 KALY 011410
RWRALY

NEW YORK STATE HOURLY WEATHER ROUNDUP
NATIONAL WEATHER SERVICE ALBANY NY
1000 AM EDT WED OCT 01 2014

NOTE: "FAIR" INDICATES FEW OR NO CLOUDS BELOW 12,000 FEET WITH NO
SIGNIFICANT WEATHER AND/OR NO OBSTRUCTIONS TO VISIBILITY.

NYZ032-033-038>043-046>054-057>066-NYZ062>081-011500-
EAST


CITY           SKY/WX    TMP DP  RH WIND       PRES   REMARKS
ALBANY         LGT RAIN  62  57  83 N5        30.10R
GLENS FALLS    CLOUDY    60  54  80 NE6       30.11R
POUGHKEEPSIE   CLOUDY    60  58  92 N3        30.07R FOG
NEWBURGH       CLOUDY    59  59 100 NE7       30.09R FOG
MONTGOMERY     LGT RAIN  59  57  93 N7        30.08R FOG
WHITE PLAINS   CLOUDY    61  57  87 N6        30.04R
ISLIP          CLOUDY    62  59  90 NE9       30.01R
NEW YORK CITY  CLOUDY    63  58  83 NE10G21   30.04R
CENTRAL PARK   CLOUDY    61  57  87 VRB5      30.07R FOG
$$

NYZ005>009-017-018-044>046-055-056-011500-
CENTRAL


CITY           SKY/WX    TMP DP  RH WIND       PRES   REMARKS
FULTON         PTSUNNY   64  58  80 VRB3      30.08R
SYRACUSE       MOSUNNY   65  59  81 E6        30.07R
ROME           CLOUDY    62  57  83 E5        30.11R
ELMIRA         CLOUDY    63  59  87 CALM      30.07R FOG
BINGHAMTON     CLOUDY    61  58  90 S3        30.08R FOG
MONTICELLO     CLOUDY    57  55  94 NE6       30.10R
$$

NYZ026>034-041>043-011500-
NORTH


CITY           SKY/WX    TMP DP  RH WIND       PRES   REMARKS
WATERTOWN      CLOUDY    58  52  80 NE10      30.11R HAZE
FORT DRUM      NOT AVBL
MASSENA        CLOUDY    55  52  89 E13       30.17R
SARANAC LAKE   FOG       53  53 100 NE8       30.12R VSB 1
PLATTSBURGH    CLOUDY    51  51 100 N7        30.16R FOG
$$

NYZ001>004-010>016-019>021-011500-
WEST


CITY           SKY/WX    TMP DP  RH WIND       PRES   REMARKS
NIAGARA FALLS  CLOUDY    60  57  89 E9        30.07R FOG
BUFFALO        CLOUDY    61  57  87 NE9       30.07R
DUNKIRK        CLOUDY    60  56  86 E7        30.06R
JAMESTOWN      CLOUDY    55  54  94 SE5       30.07R
WELLSVILLE     FOG       56  55  97 E5        30.10R VSB 1/4
ROCHESTER      DRIZZLE   61  59  93 NE8       30.08R FOG
PENN YAN       CLOUDY    61  32  33 NE3       30.08R HAZE
$$

             KEY
       WCI = WIND CHILL INDEX
       VSB = VISIBILITY
       HX  = HEAT INDEX
$$


USA.gov is the U.S. government's official web portal to all federal, state and local government web resources and services.